Location: Kolin
(50.0330°N, 15.2000°E)
Time: 09:40:36
(UTC+02:00)

ISS - Pass Details

Date: 19 May 2021
Orbit: 417 x 422 km, 51.6° (Epoch: 13 June)

Event Time Altitude Azimuth Distance (km) Brightness Sun altitude
Rises 00:30:11 0° 283° (WNW) 2,369 0.3 -20.0°
Reaches altitude 10° 00:32:17 10° 285° (WNW) 1,505 -0.7 -20.0°
Maximum altitude 00:35:40 75° 10° (N) 440 -3.6 -20.1°
Enters shadow 00:36:27 49° 83° (E) 552 -3.2 -20.1°
